This is the latest recevied weather packets stored in our database for station/object KD0RIH. If no packets are shown the sender has not sent any weather packets the latest 10 day(s).
| Time | Temp. | Humidity | Pressure | Rain* | Wind** | Luminosity | Snow |
|---|---|---|---|---|---|---|---|
| 1777666910 | 20° C | 30% | 1016.5 hPa | 0 mm | - | 907 W/m² | - |
| 1777666607 | 20.56° C | 28% | 1016.6 hPa | 0 mm | - | 200 W/m² | - |
| 1777666303 | 20.56° C | 27% | 1016.4 hPa | 0 mm | - | 233 W/m² | - |
| 1777666000 | 19.44° C | 26% | 1016.7 hPa | 0 mm | - | 739 W/m² | - |
| 1777665698 | 18.89° C | 27% | 1016.6 hPa | 0 mm | - | 557 W/m² | - |
| 1777665395 | 20° C | 28% | 1016.7 hPa | 0 mm | - | 345 W/m² | - |
| 1777665090 | 20° C | 29% | 1016.7 hPa | 0 mm | - | 941 W/m² | - |
| 1777664786 | 19.44° C | 32% | 1016.8 hPa | 0 mm | - | 943 W/m² | - |
| 1777664482 | 19.44° C | 35% | 1016.9 hPa | 0 mm | - | 601 W/m² | - |
| 1777664179 | 20° C | 28% | 1016.9 hPa | 0 mm | - | 208 W/m² | - |
| 1777663878 | 18.89° C | 31% | 1016.9 hPa | 0 mm | - | 1045 W/m² | - |
| 1777663574 | 19.44° C | 28% | 1017 hPa | 0 mm | - | 161 W/m² | - |
| 1777663272 | 20° C | 30% | 1016.9 hPa | 0 mm | - | 259 W/m² | - |
| 1777662969 | 20° C | 27% | 1016.8 hPa | 0 mm | - | 251 W/m² | - |
| 1777662666 | 20° C | 26% | 1016.9 hPa | 0 mm | - | 1068 W/m² | - |
| 1777662362 | 20° C | 31% | 1016.9 hPa | 0 mm | - | 1025 W/m² | - |
| 1777662058 | 20° C | 30% | 1017 hPa | 0 mm | - | 860 W/m² | - |
| 1777661754 | 18.89° C | 29% | 1016.9 hPa | 0 mm | - | 1116 W/m² | - |
| 1777661450 | 19.44° C | 29% | 1017.2 hPa | 0 mm | - | 267 W/m² | - |
| 1777661146 | 18.89° C | 31% | 1017 hPa | 0 mm | - | 313 W/m² | - |
| 1777660846 | 18.33° C | 30% | 1017.1 hPa | 0 mm | - | 308 W/m² | - |
| 1777660543 | 18.33° C | 31% | 1017.3 hPa | 0 mm | - | 328 W/m² | - |
| 1777660240 | 18.33° C | 32% | 1017.2 hPa | 0 mm | - | 280 W/m² | - |
| 1777659936 | 20° C | 30% | 1017.2 hPa | 0 mm | - | 1195 W/m² | - |
| 1777659633 | 21.11° C | 31% | 1017.3 hPa | 0 mm | - | 516 W/m² | - |
* Rain latest hour (hover to see other rain measurements)
** Current wind speed in m/s (hover to see current wind gust speed)